Hourly Data Report for June 14, 2021

BORDEN AWOS
ONTARIO
Current Station Operator: DND

44°16'20.000" N
79°54'42.000" W
222.50 m
611B002
71534
YBN

Download Data

Hourly Data (June 2021)
Hourly Data Report for June 14, 2021
TIME
LST
Temp Definition
°C
Dew Point Definition
°C
Rel Hum Definition
%
Precip. Amount Definition
mm

Wind Dir Definition
10's deg

Wind Spd Definition
km/h
Visibility Definition
km
Stn Press Definition
kPa
Hmdx Definition


Wind Chill Definition


Weather Definition


00:00 13.2 10.6 84   21 6 14.5 98.26     LegendNANA
01:00 11.8 9.3 85   23 6 14.5 98.19     LegendNANA
02:00 13.8 10.0 78   24 4 14.5 98.22     LegendNANA
03:00 13.3 10.3 82     0 14.5 98.17     LegendNANA
04:00 14.8 10.7 76     0 14.5 98.20     LegendNANA
05:00 15.3 10.9 75   33 4 14.5 98.26     Rain
06:00 15.1 11.8 81   2 9 14.5 98.31     Rain
07:00 15.3 12.7 85     0 14.5 98.35     Rain
08:00 16.2 12.5 79   28 7 14.5 98.34     LegendNANA
09:00 17.7 12.3 71   31 15 14.5 98.30     LegendNANA
10:00 19.8 12.8 64   28 6 14.5 98.31     LegendNANA
11:00 20.2 12.6 62   33 13 14.5 98.29     LegendNANA
12:00 21.3 11.9 55   33 19 14.5 98.26     LegendNANA
13:00 22.8 11.1 48   34 17 14.5 98.22 25   LegendNANA
14:00 20.9 11.7 56   33 20 14.5 98.20     LegendNANA
15:00 21.3 12.4 57   33 24 14.5 98.20     LegendNANA
16:00 18.9 12.5 66   32 22 14.5 98.25     LegendNANA
17:00 17.5 12.4 72   33 19 14.5 98.30     LegendNANA
18:00 17.2 12.9 76   34 15 14.5 98.33     LegendNANA
19:00 16.7 11.9 73   32 9 14.5 98.36     LegendNANA
20:00 15.8 12.2 79   32 9 14.5 98.40     LegendNANA
21:00 15.4 12.3 82   30 9 14.5 98.41     LegendNANA
22:00 15.1 12.7 86   29 6 14.5 98.42     LegendNANA
23:00                      

Notes on Data Quality.

Legend

  • E = Estimated
  • M = Missing
  • NA = Not Available*
  • [empty] = Indicates an unobserved value
Date modified: